EW8716 Weather Reports


time (UTC)temp
F
wind
direction
speed
knots
gust
knots
rain 1hr
in
rain 24hr
in
rain mn
in
humidity
%
barometer
mb
20260506072845 45 110 0.0 0.0 0.00 0.00 0.00 63 1015.5
20260506072102 45 110 0.0 0.0 0.00 0.00 0.00 63 1015.5
20260506071602 45 191 0.0 0.0 0.00 0.00 0.00 63 1015.5
20260506071102 44 191 0.0 0.0 0.00 0.00 0.00 63 1015.5
20260506070603 44 191 0.0 0.0 0.00 0.00 0.00 64 1015.5
20260506070106 44 192 0.0 0.0 0.00 0.00 0.00 64 1015.4
20260506062103 41 192 0.0 0.0 0.00 0.00 0.00 65 1015.3
20260506061602 41 192 0.0 0.0 0.00 0.00 0.00 65 1015.3
20260506061103 41 192 0.0 0.0 0.00 0.00 0.00 65 1015.3
20260506060602 40 192 0.0 0.0 0.00 0.00 0.00 65 1015.2
20260506051103 38 147 0.0 0.0 0.00 0.00 0.00 66 1015.4
20260506050603 38 147 0.0 0.0 0.00 0.00 0.00 66 1015.4
20260506045102 38 146 0.0 0.0 0.00 0.00 0.00 66 1015.3
20260506044603 38 146 0.0 0.0 0.00 0.00 0.00 66 1015.3
20260506044103 38 146 0.0 0.0 0.00 0.00 0.00 66 1015.3
20260506043604 38 146 0.0 0.0 0.00 0.00 0.00 66 1015.3
20260506043102 38 144 0.0 0.0 0.00 0.00 0.00 66 1015.2
20260506042603 38 144 0.0 0.0 0.00 0.00 0.00 66 1015.2
20260506042104 38 144 0.0 0.0 0.00 0.00 0.00 66 1015.2
20260506041603 38 144 0.0 0.0 0.00 0.00 0.00 66 1015.2
20260506041104 38 144 0.0 0.0 0.00 0.00 0.00 66 1015.2
20260506040842 38 144 0.0 0.0 0.00 0.00 0.00 66 1015.2
20260506040105 38 144 0.0 0.0 0.00 0.00 0.00 66 1015.3
20260506035602 38 143 0.0 0.0 0.00 0.00 0.00 66 1015.3
20260506035341 38 143 0.0 0.0 0.00 0.00 0.00 66 1015.2
20260506034842 39 143 0.0 0.0 0.00 0.00 0.00 66 1015.2
20260506034103 39 143 0.0 0.0 0.00 0.00 0.00 66 1015.3
20260506033603 39 143 0.0 0.0 0.00 0.00 0.00 66 1015.3
20260506033344 39 143 0.0 0.0 0.00 0.00 0.00 66 1015.3
20260506032603 39 143 0.0 0.0 0.00 0.00 0.00 66 1015.4
20260506032103 39 143 0.0 0.0 0.00 0.00 0.00 66 1015.4
20260506031602 39 143 0.0 0.0 0.00 0.00 0.00 66 1015.4
20260506031131 39 143 0.0 0.0 0.00 0.00 0.00 65 1015.4
20260506031121 39 143 0.0 0.0 0.00 0.00 0.00 65 1015.5
20260506030104 39 143 0.0 0.0 0.00 0.00 0.00 66 1015.5
20260506025602 39 143 0.0 0.0 0.00 0.00 0.00 66 1015.5
20260506025344 39 143 0.0 0.0 0.00 0.00 0.00 66 1015.5
20260506024602 39 143 0.0 0.0 0.00 0.00 0.00 66 1015.5
20260506024341 39 143 0.0 0.0 0.00 0.00 0.00 66 1015.6
20260506023603 39 143 0.0 0.0 0.00 0.00 0.00 66 1015.5
20260506023101 39 143 0.0 0.0 0.00 0.00 0.00 65 1015.4
20260506022604 40 143 0.0 0.0 0.00 0.00 0.00 65 1015.4
20260506022103 40 143 0.0 0.0 0.00 0.00 0.00 65 1015.4
20260506021844 40 143 0.0 0.0 0.00 0.00 0.00 65 1015.4
20260506021124 40 143 0.0 0.0 0.00 0.00 0.00 65 1015.5
20260506021117 40 143 0.0 0.0 0.00 0.00 0.00 65 1015.4
20260506020345 40 143 0.0 0.0 0.00 0.00 0.00 65 1015.5
20260506015603 40 143 0.0 0.0 0.00 0.00 0.00 65 1015.6
20260506015102 40 143 0.0 0.0 0.00 0.00 0.00 65 1015.7
20260506014839 40 143 0.0 0.0 0.00 0.00 0.00 65 1015.7
20260506014100 40 143 0.0 0.0 0.00 0.00 0.00 65 1015.8
20260506013559 40 143 0.0 0.0 0.00 0.00 0.00 65 1015.9
20260506013100 40 143 0.0 0.0 0.00 0.00 0.00 65 1015.8
20260506012601 40 143 0.0 0.0 0.00 0.00 0.00 65 1015.8
20260506012059 40 143 0.0 0.0 0.00 0.00 0.00 65 1015.9
20260506011558 40 143 0.0 0.0 0.00 0.00 0.00 65 1015.9
20260506011100 40 143 0.0 0.0 0.00 0.00 0.00 65 1015.9
20260506010559 40 143 0.0 0.0 0.00 0.00 0.00 65 1016.0
20260506010059 40 143 0.0 0.0 0.00 0.00 0.00 65 1015.9
20260506005557 40 143 0.0 0.0 0.00 0.00 0.00 65 1015.9
20260506005336 40 143 0.0 0.0 0.00 0.00 0.00 65 1016.0
20260506004559 40 143 0.0 0.0 0.00 0.00 0.00 65 1016.0
20260506004057 40 143 0.0 0.0 0.00 0.00 0.00 65 1016.0
20260506003835 40 143 0.0 0.0 0.00 0.00 0.00 65 1015.9
20260506003053 41 143 0.0 0.0 0.00 0.00 0.00 65 1016.0
20260506002552 41 143 0.0 0.0 0.00 0.00 0.00 65 1016.0
20260506002330 41 143 0.0 0.0 0.00 0.00 0.00 65 1016.0
20260506001549 41 143 0.0 0.0 0.00 0.00 0.00 65 1015.9
20260506001051 41 143 0.0 0.0 0.00 0.00 0.00 65 1015.9
20260506000545 41 143 0.0 0.0 0.00 0.00 0.00 64 1015.9
20260506000038 41 143 0.0 0.0 0.00 0.00 0.00 64 1015.9
20260505235817 41 143 0.0 0.0 0.00 0.00 0.00 64 1015.9
20260505235037 41 143 0.0 0.0 0.00 0.00 0.00 64 1016.0
20260505234815 41 143 0.0 0.0 0.00 0.00 0.00 64 1016.0
20260505234314 41 143 0.0 0.0 0.00 0.00 0.00 64 1016.0
20260505233533 42 143 0.0 0.0 0.00 0.00 0.00 64 1016.0
20260505233031 42 143 0.0 0.0 0.00 0.00 0.00 64 1016.0
20260505232532 42 143 0.0 0.0 0.00 0.00 0.00 64 1016.1
20260505232031 42 143 0.0 0.0 0.00 0.00 0.00 64 1016.0
20260505231533 42 143 0.0 0.0 0.00 0.00 0.00 64 1016.1
20260505231313 42 143 0.0 0.0 0.00 0.00 0.00 64 1016.1
20260505230531 42 143 0.0 0.0 0.00 0.00 0.00 64 1016.1
20260505230033 42 143 0.0 0.0 0.00 0.00 0.00 64 1016.1
20260505225532 42 143 0.0 0.0 0.00 0.00 0.00 64 1016.2
20260505225033 42 143 0.0 0.0 0.00 0.00 0.00 64 1016.1
20260505224532 42 143 0.0 0.0 0.00 0.00 0.00 64 1016.0
20260505224033 42 143 0.0 0.0 0.00 0.00 0.00 63 1016.1
20260505223533 43 143 0.0 0.0 0.00 0.00 0.00 64 1016.1
20260505223031 43 143 0.0 0.0 0.00 0.00 0.00 63 1016.3
20260505222532 43 143 0.0 0.0 0.00 0.00 0.00 63 1016.3
20260505222033 43 143 0.0 0.0 0.00 0.00 0.00 63 1016.2
20260505221532 43 143 0.0 0.0 0.00 0.00 0.00 63 1016.3
20260505221032 43 143 0.0 0.0 0.00 0.00 0.00 63 1016.2
20260505220534 43 143 0.0 0.0 0.00 0.00 0.00 63 1016.3
20260505220330 43 143 0.0 0.0 0.00 0.00 0.00 63 1016.3
20260505215529 44 143 0.0 0.0 0.00 0.00 0.00 63 1016.3
20260505215031 44 143 0.0 0.0 0.00 0.00 0.00 63 1016.3
20260505214526 44 143 0.0 0.0 0.00 0.00 0.00 62 1016.2
20260505214028 44 143 0.0 0.0 0.00 0.00 0.00 62 1016.1
20260505213525 44 143 0.0 0.0 0.00 0.00 0.00 62 1016.2
20260505213023 44 143 0.0 0.0 0.00 0.00 0.00 62 1016.2
20260505212525 44 143 0.0 0.0 0.00 0.00 0.00 62 1016.2
20260505212023 44 143 0.0 0.0 0.00 0.00 0.00 62 1016.1
20260505211524 44 143 0.0 0.0 0.00 0.00 0.00 62 1016.3
20260505211023 44 143 0.0 0.0 0.00 0.00 0.00 62 1016.2
20260505210519 44 143 0.0 0.0 0.00 0.00 0.00 62 1016.1
20260505210020 44 143 0.0 0.0 0.00 0.00 0.00 62 1016.1
20260505205759 44 143 0.0 0.0 0.00 0.00 0.00 62 1016.1
20260505205017 44 143 0.0 0.0 0.00 0.00 0.00 62 1016.1
20260505204518 45 143 0.0 0.0 0.00 0.00 0.00 62 1016.1
20260505204018 45 143 0.0 0.0 0.00 0.00 0.00 62 1016.1
20260505203803 45 143 0.0 0.0 0.00 0.00 0.00 62 1016.2
20260505203016 45 143 0.0 0.0 0.00 0.00 0.00 62 1016.2
20260505202518 45 143 0.0 0.0 0.00 0.00 0.00 61 1016.1
20260505202017 45 190 0.0 0.0 0.00 0.00 0.00 61 1016.2
20260505201515 45 124 0.0 0.0 0.00 0.00 0.00 61 1016.2
20260505201013 45 123 0.0 0.0 0.00 0.00 0.00 61 1016.1
20260505200514 45 123 0.0 0.0 0.00 0.00 0.00 61 1016.2
20260505200015 45 164 0.0 0.0 0.00 0.00 0.00 61 1016.2
20260505195508 45 164 0.0 0.0 0.00 0.00 0.00 61 1016.1
20260505195250 45 165 0.0 0.0 0.00 0.00 0.00 61 1016.0
20260505194504 45 165 0.0 0.0 0.00 0.00 0.00 61 1016.0
20260505194006 45 167 0.0 0.0 0.00 0.00 0.00 61 1016.0
20260505193504 45 168 0.0 0.0 0.00 0.00 0.00 61 1016.0
20260505193005 45 155 0.0 0.0 0.00 0.00 0.00 61 1015.9
20260505192504 46 161 0.0 0.0 0.00 0.00 0.00 60 1016.0
20260505192005 46 115 0.0 0.0 0.00 0.00 0.00 60 1015.9
20260505191504 46 134 0.0 0.0 0.00 0.00 0.00 60 1015.9
20260505191002 46 159 0.0 0.0 0.00 0.00 0.00 60 1015.9
20260505190504 46 130 0.0 0.0 0.00 0.00 0.00 60 1015.8
20260505190004 46 171 0.0 0.0 0.00 0.00 0.00 60 1015.8
20260505185505 46 128 0.0 0.0 0.00 0.00 0.00 60 1015.8
20260505185004 46 150 0.0 0.0 0.00 0.00 0.00 59 1015.8
20260505184503 46 169 0.0 0.0 0.00 0.00 0.00 59 1015.8
20260505184003 46 148 0.0 0.0 0.00 0.00 0.00 59 1015.8
20260505183502 46 119 0.0 0.0 0.00 0.00 0.00 59 1015.8
20260505183002 47 169 0.0 0.0 0.00 0.00 0.00 59 1015.7
20260505182504 47 129 0.0 0.0 0.00 0.00 0.00 59 1015.7
20260505182004 47 128 0.0 0.0 0.00 0.00 0.00 59 1015.8
20260505181537 47 355 0.0 0.0 0.00 0.00 0.00 59 1015.7
20260505181526 47 147 0.0 0.0 0.00 0.00 0.00 59 1015.7
20260505180502 47 134 0.0 0.0 0.00 0.00 0.00 58 1015.7
20260505180002 47 167 0.0 0.0 0.00 0.00 0.00 59 1015.7
20260505175505 47 178 0.0 0.0 0.00 0.00 0.00 59 1015.6
20260505175002 47 183 0.0 0.0 0.00 0.00 0.00 59 1015.6
20260505174502 47 153 0.0 0.0 0.00 0.00 0.00 59 1015.6
20260505174003 47 146 0.0 0.0 0.00 0.00 0.00 58 1015.6
20260505173501 47 150 0.0 0.0 0.00 0.00 0.00 58 1015.6
20260505173003 47 178 0.0 0.0 0.00 0.00 0.00 59 1015.7
20260505172544 47 139 0.0 0.0 0.00 0.00 0.00 59 1015.7
20260505172530 47 145 0.0 0.0 0.00 0.00 0.00 59 1015.7
20260505171504 47 5 0.0 0.0 0.00 0.00 0.00 59 1015.7
20260505171004 47 11 0.0 0.0 0.00 0.00 0.00 59 1015.7
20260505170502 47 296 0.0 0.0 0.00 0.00 0.00 59 1015.7
20260505170003 47 5 0.0 0.0 0.00 0.00 0.00 59 1015.7
20260505165502 48 19 0.0 0.0 0.00 0.00 0.00 59 1015.7
20260505165002 48 111 0.0 0.0 0.00 0.00 0.00 58 1015.6
20260505164505 48 169 0.0 0.0 0.00 0.00 0.00 59 1015.6
20260505164002 48 137 0.0 0.0 0.00 0.00 0.00 59 1015.5
20260505163502 48 138 0.0 0.0 0.00 0.00 0.00 59 1015.6
20260505163003 49 109 0.0 0.0 0.00 0.00 0.00 59 1015.6
20260505162504 49 139 0.0 0.0 0.00 0.00 0.00 59 1015.6
20260505162004 49 125 0.0 0.0 0.00 0.00 0.00 59 1015.5
20260505161503 49 158 0.0 0.0 0.00 0.00 0.00 59 1015.5
20260505161003 49 121 0.0 0.0 0.00 0.00 0.00 59 1015.5
20260505160502 49 28 0.0 0.0 0.00 0.00 0.00 59 1015.5
20260505153003 49 355 0.0 0.0 0.00 0.00 0.00 59 1015.4
20260505152504 50 174 0.0 0.0 0.00 0.00 0.00 59 1015.5
20260505152249 50 351 0.0 0.0 0.00 0.00 0.00 59 1015.4
20260505151502 50 117 0.0 0.0 0.00 0.00 0.00 59 1015.4
20260505151003 50 144 0.0 0.0 0.00 0.00 0.00 60 1015.4
20260505150504 49 139 0.0 0.0 0.00 0.00 0.00 60 1015.4
20260505150251 49 34 0.0 0.0 0.00 0.00 0.00 60 1015.5
20260505140503 49 99 0.0 0.0 0.00 0.00 0.00 61 1015.3
20260505125003 49 130 0.0 0.0 0.00 0.00 0.00 61 1015.1
20260505124502 49 215 0.0 0.0 0.00 0.00 0.00 61 1015.1
20260505124002 49 351 0.0 0.0 0.00 0.00 0.00 61 1015.0
20260505123753 49 355 0.0 0.0 0.00 0.00 0.00 61 1014.9
20260505123002 49 135 0.0 0.0 0.00 0.00 0.00 61 1014.9
20260505122502 49 225 0.0 0.0 0.00 0.00 0.00 60 1014.9
20260505122002 50 182 0.0 0.0 0.00 0.00 0.00 60 1015.0
20260505121503 50 171 0.0 0.0 0.00 0.00 0.00 60 1014.9
20260505121004 50 318 0.0 0.0 0.00 0.00 0.00 60 1014.8
20260505120750 51 158 0.0 0.0 0.00 0.00 0.00 60 1014.8
20260505120003 51 96 0.0 0.0 0.00 0.00 0.00 60 1014.8
20260505115503 52 314 0.0 0.0 0.00 0.00 0.00 59 1014.7
20260505115001 52 9 0.0 0.0 0.00 0.00 0.00 60 1014.8
20260505114502 52 161 0.0 0.0 0.00 0.00 0.00 59 1014.7
20260505114003 53 132 0.0 0.0 0.00 0.00 0.00 59 1014.7
20260505113749 53 29 0.0 0.0 0.00 0.00 0.00 59 1014.6
20260505113330 53 149 0.0 0.0 0.00 0.00 0.00 60 1014.4
20260505113028 53 340 0.0 0.0 0.00 0.00 0.00 60 1014.6
20260505112043 51 345 0.0 0.0 0.00 0.00 0.00 61 1014.4
20260505112030 52 154 0.0 0.0 0.00 0.00 0.00 61 1014.5
20260505111041 51 53 0.0 0.0 0.00 0.00 0.00 60 1014.4
20260505111028 51 338 0.0 0.0 0.00 0.00 0.00 61 1014.4
20260505102002 54 240 0.0 0.0 0.00 0.00 0.00 58 1014.0
20260505101503 54 5 0.0 0.0 0.00 0.00 0.00 58 1014.1
20260505101245 54 298 0.0 0.0 0.00 0.00 0.00 58 1014.0
20260505100504 54 32 0.0 0.0 0.00 0.00 0.00 59 1014.0
20260505100002 54 63 0.0 0.0 0.00 0.00 0.00 59 1014.0
20260505095503 54 34 0.0 0.0 0.00 0.00 0.00 59 1014.0
20260505095003 54 291 0.0 0.0 0.00 0.00 0.00 59 1013.9
20260505094501 54 44 0.0 0.0 0.00 0.00 0.00 59 1013.9
20260505094003 54 81 0.0 0.0 0.00 0.00 0.00 59 1013.9
20260505093503 54 48 0.0 0.0 0.00 0.00 0.00 59 1013.8
20260505093004 54 270 0.0 0.0 0.00 0.00 0.00 59 1013.8
20260505092501 54 88 0.0 0.0 0.00 0.00 0.00 59 1013.8
20260505092003 54 36 0.0 0.0 0.00 0.00 0.00 60 1013.8
20260505091502 53 31 0.0 0.0 0.00 0.00 0.00 60 1013.8
20260505091002 53 19 0.0 0.0 0.00 0.00 0.00 60 1013.7
20260505090747 53 26 0.0 0.0 0.00 0.00 0.00 60 1013.6
20260505090002 53 44 0.0 0.0 0.00 0.00 0.00 60 1013.6
20260505085503 53 15 0.0 0.0 0.00 0.00 0.00 60 1013.6
20260505085244 53 58 0.0 0.0 0.00 0.00 0.00 60 1013.6
20260505084747 53 355 0.0 0.0 0.00 0.00 0.00 60 1013.6
20260505084004 53 40 0.0 0.0 0.00 0.00 0.00 60 1013.6
20260505083503 53 46 0.0 0.0 0.00 0.00 0.00 60 1013.6
20260505083003 53 47 0.0 0.0 0.00 0.00 0.00 60 1013.6
20260505082746 53 38 0.0 0.0 0.00 0.00 0.00 60 1013.5
20260505082002 54 37 0.0 0.0 0.00 0.00 0.00 60 1013.4
20260505081503 54 21 0.0 0.0 0.00 0.00 0.00 60 1013.4
20260505081003 54 53 0.0 0.0 0.00 0.00 0.00 60 1013.3
20260505080504 53 84 0.0 0.0 0.00 0.00 0.00 60 1013.4
20260505080003 53 317 0.0 0.0 0.00 0.00 0.00 60 1013.3
20260505075502 53 115 0.0 0.0 0.00 0.00 0.00 61 1013.2
20260505075004 52 44 0.0 0.0 0.00 0.00 0.00 61 1013.2
20260505074503 52 9 0.0 0.0 0.00 0.00 0.00 61 1013.1
20260505074001 51 266 0.0 0.0 0.00 0.00 0.00 62 1013.0
20260505073501 50 5 0.0 0.0 0.00 0.00 0.00 62 1013.1